Regional Weather Roundup
Issued by NWS State College, PA

Home | Current Version | Previous Version | Text Only | Print | Product List | Glossary On
Versions: 1 2 3 4 5 6 7 8 9 10 11 12 13 14 15 16 17 18 19 20 21 22 23 24 25 26 27 28 29 30 31 32 33 34 35 36 37 38 39 40 41 42 43 44 45 46 47 48 49 50
399
ASUS41 KCTP 202210
RWRCTP

REGIONAL WEATHER ROUNDUP
NATIONAL WEATHER SERVICE STATE COLLEGE PA
500 PM EST FRI JAN 20 2017

Note: "fair" indicates few or no clouds below 12,000 feet with no
significant weather and/or obstructions to visibility.

* = STATION THAT DOES NOT REPORT PRECIPITATION /E.G. RAIN...SNOW...ETC/
    THUNDER OR FOG.

PAZ002>004-007>009-013>016-020>023-029>032-202300-
WESTERN PENNSYLVANIA

CITY           SKY/WX    TMP DP  RH WIND       PRES   REMARKS
ERIE           CLOUDY    49  46  90 S10       29.70R
MEADVILLE      CLOUDY    48  46  93 S5        29.71R FOG
FRANKLIN*        N/A     46  45  93 S5        29.74R VSB<1/4
NEW CASTLE     CLOUDY    53  51  93 VRB3      29.73R
BEAVER COUNTY  CLOUDY    52  50  93 S3        29.74R
BUTLER*        CLOUDY    52  48  87 CALM      29.77R
PITTSBURGH INT CLOUDY    56  52  86 S3        29.73R
PITTSBURGH     CLOUDY    56  48  74 S6        29.74R
INDIANA*       FOG       48  48 100 E3        29.79R VSB 0
LATROBE        MOCLDY    55  52  88 SW9       29.77R
WASHINGTON CO* NOT AVBL
$$

PAZ004>006-010>012-017>019-024>028-033>037-041-042-045-046-049>053-202300-
CENTRAL PENNSYLVANIA

CITY           SKY/WX    TMP DP  RH WIND       PRES   REMARKS
BRADFORD       CLOUDY    40  40 100 SE3       29.73S FOG
DUBOIS         FOG       42  40  92 SE5       29.75R VSB 1/4
CLEARFIELD     FOG       39  39 100 N3        29.79R VSB 1/4
JOHNSTOWN      CLOUDY    49  48  97 S3        29.77R
ALTOONA        CLOUDY    43  41  93 S5        29.81R FOG
STATE COLLEGE  DRZL/FOG  37  37 100 CALM      29.81R VSB 3/4
WILLIAMSPORT   CLOUDY    40  37  89 E7        29.85R FOG
SELINSGROVE    FOG       37  37 100 CALM      29.86S VSB 3/4
FT INDIANTOWN  CLOUDY    37  37 100 VRB3      29.88R FOG
CAPITAL CITY   CLOUDY    41  38  89 E5        29.88R FOG
HARRISBURG     CLOUDY    41  40  96 E5        29.87S FOG
YORK           CLOUDY    42  42 100 CALM      29.86R FOG
$$

PAZ038>040-043-044-047-048-054-055-060>062-067>071-202300-
EASTERN PENNSYLVANIA

CITY           SKY/WX    TMP DP  RH WIND       PRES   REMARKS
SCRANTON       LGT RAIN  38  38 100 CALM      29.83S FOG
MOUNT POCONO   LGT RAIN  33  32  96 S5        29.82F FOG
ALLENTOWN      CLOUDY    40  36  86 CALM      29.90S
QUAKERTOWN*    CLOUDY    37  37 100 SE3       29.90F
READING        CLOUDY    39  39 100 CALM      29.88F FOG
LANCASTER      CLOUDY    41  41 100 E6        29.87F FOG
COATESVILLE    FOG       39  39 100 SE5       29.89F VSB 1/4
POTTSTOWN      CLOUDY    38  37  97 CALM      29.91F FOG
BLUE BELL      CLOUDY    37  37 100 CALM      29.90S
DOYLESTOWN     CLOUDY    40  38  93 CALM      29.90F
WILLOW GROVE   NOT AVBL
NORTH PHILA    CLOUDY    41  39  93 SE3       29.93F FOG
PHILADELPHIA   CLOUDY    41  39  93 E3        29.92F FOG
$$




USA.gov is the U.S. government's official web portal to all federal, state and local government web resources and services.